Time,TemperatureF,DewpointF,PressureIn,WindDirection,WindDirectionDegrees,WindSpeedMPH,WindSpeedGustMPH,Humidity,HourlyPrecipIn,Conditions,Clouds,dailyrainin,SolarRadiationWatts/m^2,SoftwareType,DateUTC
2013-05-25 00:01:00,37.2,35.4,30.35,NE,42,0.0,0.0,93,0.00,RA,,0.00,0.0,WeatherDisplay:10.37,2013-05-25 04:01:00,
2013-05-25 00:06:00,37.2,35.4,30.35,NE,42,0.1,1.0,93,0.00,RA,,0.00,0.0,WeatherDisplay:10.37,2013-05-25 04:06:00,
2013-05-25 00:11:00,37.1,35.3,30.35,NE,42,0.5,1.1,93,0.00,CLR,,0.00,0.0,WeatherDisplay:10.37,2013-05-25 04:11:00,
2013-05-25 00:16:00,37.1,35.5,30.35,NE,42,0.0,0.0,94,0.00,CLR,,0.00,0.0,WeatherDisplay:10.37,2013-05-25 04:16:00,
2013-05-25 00:21:00,37.0,35.4,30.35,NE,42,0.2,1.1,94,0.00,CLR,,0.00,0.0,WeatherDisplay:10.37,2013-05-25 04:21:00,
2013-05-25 00:26:00,37.0,35.2,30.35,NE,42,0.0,0.0,93,0.00,CLR,,0.00,0.0,WeatherDisplay:10.37,2013-05-25 04:26:00,
2013-05-25 00:31:00,37.1,35.5,30.35,NE,42,0.0,0.0,94,0.00,CLR,,0.00,0.0,WeatherDisplay:10.37,2013-05-25 04:31:00,
2013-05-25 00:36:00,37.2,35.6,30.35,NE,42,0.0,0.0,94,0.00,CLR,,0.00,0.0,WeatherDisplay:10.37,2013-05-25 04:36:00,
2013-05-25 00:41:00,37.1,35.5,30.34,NE,42,0.0,0.0,94,0.00,CLR,,0.00,0.0,WeatherDisplay:10.37,2013-05-25 04:41:00,
2013-05-25 00:46:00,37.1,35.5,30.34,NE,42,0.0,0.0,94,0.00,CLR,,0.00,0.0,WeatherDisplay:10.37,2013-05-25 04:46:00,
2013-05-25 00:51:00,36.9,35.3,30.34,NE,42,0.0,0.0,94,0.00,CLR,,0.00,0.0,WeatherDisplay:10.37,2013-05-25 04:51:00,
2013-05-25 00:56:00,36.9,35.3,30.35,NE,42,0.0,0.0,94,0.00,CLR,,0.00,0.0,WeatherDisplay:10.37,2013-05-25 04:56:00,
2013-05-25 01:01:00,36.9,35.3,30.34,NE,42,0.0,0.0,94,0.00,CLR,,0.00,0.0,WeatherDisplay:10.37,2013-05-25 05:01:00,
2013-05-25 01:06:00,36.7,35.1,30.34,NE,42,0.0,0.0,94,0.00,CLR,,0.00,0.0,WeatherDisplay:10.37,2013-05-25 05:06:00,
2013-05-25 01:11:00,36.7,35.1,30.34,NE,42,0.0,0.0,94,0.00,CLR,,0.00,0.0,WeatherDisplay:10.37,2013-05-25 05:11:00,
2013-05-25 01:16:00,36.6,35.0,30.35,NE,42,0.0,0.0,94,0.00,CLR,,0.00,0.0,WeatherDisplay:10.37,2013-05-25 05:16:00,
2013-05-25 01:21:00,36.5,34.9,30.35,NE,42,0.0,0.0,94,0.00,CLR,,0.00,0.0,WeatherDisplay:10.37,2013-05-25 05:21:00,
2013-05-25 01:26:00,36.4,34.8,30.35,NE,42,0.0,0.0,94,0.00,CLR,,0.00,0.0,WeatherDisplay:10.37,2013-05-25 05:26:00,
2013-05-25 01:31:00,36.2,34.6,30.35,NE,42,0.0,0.0,94,0.00,CLR,,0.00,0.0,WeatherDisplay:10.37,2013-05-25 05:31:00,
2013-05-25 01:36:00,36.2,34.6,30.35,NE,42,0.0,0.0,94,0.00,CLR,,0.00,0.0,WeatherDisplay:10.37,2013-05-25 05:36:00,
2013-05-25 01:41:00,36.1,34.5,30.35,NE,42,0.0,0.0,94,0.00,CLR,,0.00,0.0,WeatherDisplay:10.37,2013-05-25 05:41:00,
2013-05-25 01:46:00,36.0,34.4,30.35,NE,42,0.0,0.0,94,0.00,CLR,,0.00,0.0,WeatherDisplay:10.37,2013-05-25 05:46:00,
2013-05-25 01:51:00,36.0,34.4,30.35,NE,42,0.0,0.0,94,0.00,CLR,,0.00,0.0,WeatherDisplay:10.37,2013-05-25 05:51:00,
2013-05-25 01:56:00,35.8,34.2,30.35,NE,42,0.0,1.1,94,0.00,CLR,,0.00,0.0,WeatherDisplay:10.37,2013-05-25 05:56:00,
2013-05-25 02:01:00,35.6,34.0,30.34,NE,42,0.0,0.0,94,0.00,CLR,,0.00,0.0,WeatherDisplay:10.37,2013-05-25 06:01:00,
2013-05-25 02:06:00,35.6,34.0,30.34,NE,42,0.0,0.0,94,0.00,CLR,,0.00,0.0,WeatherDisplay:10.37,2013-05-25 06:06:00,
2013-05-25 02:11:00,35.4,33.8,30.35,NE,42,0.0,0.0,94,0.00,CLR,,0.00,0.0,WeatherDisplay:10.37,2013-05-25 06:11:00,
2013-05-25 02:16:00,35.4,34.1,30.35,NE,42,0.0,0.0,95,0.00,CLR,,0.00,0.0,WeatherDisplay:10.37,2013-05-25 06:16:00,
2013-05-25 02:21:00,35.3,34.0,30.35,NE,42,0.0,0.0,95,0.00,CLR,,0.00,0.0,WeatherDisplay:10.37,2013-05-25 06:21:00,
2013-05-25 02:26:00,35.2,33.6,30.35,NE,42,0.0,0.0,94,0.00,CLR,,0.00,0.0,WeatherDisplay:10.37,2013-05-25 06:26:00,
2013-05-25 02:31:00,35.4,34.1,30.35,NE,42,0.2,1.1,95,0.00,CLR,,0.00,0.0,WeatherDisplay:10.37,2013-05-25 06:31:00,
2013-05-25 02:36:00,35.5,34.2,30.35,ENE,71,0.4,1.1,95,0.00,CLR,,0.00,0.0,WeatherDisplay:10.37,2013-05-25 06:36:00,
2013-05-25 02:41:00,35.6,34.3,30.35,ENE,74,0.4,2.3,95,0.00,CLR,,0.00,0.0,WeatherDisplay:10.37,2013-05-25 06:41:00,
2013-05-25 02:46:00,35.5,34.2,30.35,South,184,0.5,3.5,95,0.00,CLR,,0.00,0.0,WeatherDisplay:10.37,2013-05-25 06:46:00,
2013-05-25 02:51:00,35.6,34.3,30.34,SSW,198,0.5,2.3,95,0.00,CLR,,0.00,0.0,WeatherDisplay:10.37,2013-05-25 06:51:00,
2013-05-25 02:56:00,35.5,34.2,30.34,SSW,198,0.1,1.1,95,0.00,CLR,,0.00,0.0,WeatherDisplay:10.37,2013-05-25 06:56:00,
2013-05-25 03:01:00,35.5,34.2,30.34,SSW,198,0.5,1.1,95,0.00,CLR,,0.00,0.0,WeatherDisplay:10.37,2013-05-25 07:01:00,
2013-05-25 03:06:00,35.5,34.2,30.34,SSW,192,0.2,1.1,95,0.00,CLR,,0.00,0.0,WeatherDisplay:10.37,2013-05-25 07:06:00,
2013-05-25 03:11:00,35.4,33.8,30.35,SSW,192,0.0,1.1,94,0.00,CLR,,0.00,0.0,WeatherDisplay:10.37,2013-05-25 07:11:00,
2013-05-25 03:16:00,35.3,34.0,30.34,SSW,192,0.2,1.1,95,0.00,CLR,,0.00,0.0,WeatherDisplay:10.37,2013-05-25 07:16:00,
2013-05-25 03:21:00,35.3,33.7,30.34,SSW,192,0.3,1.1,94,0.00,CLR,,0.00,0.0,WeatherDisplay:10.37,2013-05-25 07:21:00,
2013-05-25 03:26:00,35.3,34.0,30.34,SSW,192,0.0,0.0,95,0.00,CLR,,0.00,0.0,WeatherDisplay:10.37,2013-05-25 07:26:00,
2013-05-25 03:31:00,35.3,34.0,30.34,SSW,192,0.0,1.1,95,0.00,CLR,,0.00,0.0,WeatherDisplay:10.37,2013-05-25 07:31:00,
2013-05-25 03:36:00,35.1,33.5,30.34,SSW,192,0.0,0.0,94,0.00,CLR,,0.00,0.0,WeatherDisplay:10.37,2013-05-25 07:36:00,
2013-05-25 03:41:00,35.1,33.5,30.34,SSW,192,0.0,0.0,94,0.00,CLR,,0.00,0.0,WeatherDisplay:10.37,2013-05-25 07:41:00,
2013-05-25 03:46:00,35.2,33.9,30.34,SSW,192,0.0,0.0,95,0.00,CLR,,0.00,0.0,WeatherDisplay:10.37,2013-05-25 07:46:00,
2013-05-25 03:51:00,35.1,33.5,30.34,SSW,192,0.0,0.0,94,0.00,CLR,,0.00,0.0,WeatherDisplay:10.37,2013-05-25 07:51:00,
2013-05-25 03:56:00,35.1,33.8,30.34,SSW,192,0.0,0.0,95,0.00,CLR,,0.00,0.0,WeatherDisplay:10.37,2013-05-25 07:56:00,
2013-05-25 04:01:00,34.9,33.3,30.34,SSW,192,0.0,0.0,94,0.00,CLR,,0.00,0.0,WeatherDisplay:10.37,2013-05-25 08:01:00,
2013-05-25 04:06:00,35.0,33.7,30.35,SSW,192,0.0,0.0,95,0.00,CLR,,0.00,0.0,WeatherDisplay:10.37,2013-05-25 08:06:00,
2013-05-25 04:11:00,35.0,33.7,30.35,SSW,192,0.0,0.0,95,0.00,CLR,,0.00,0.0,WeatherDisplay:10.37,2013-05-25 08:11:00,
2013-05-25 04:16:00,34.9,33.6,30.35,SSW,192,0.0,0.0,95,0.00,CLR,,0.00,0.0,WeatherDisplay:10.37,2013-05-25 08:16:00,
2013-05-25 04:21:00,35.0,33.7,30.35,SSW,192,0.0,0.0,95,0.00,CLR,,0.00,0.0,WeatherDisplay:10.37,2013-05-25 08:21:00,
2013-05-25 04:26:00,34.9,33.6,30.36,SSW,192,0.2,1.1,95,0.00,CLR,,0.00,0.0,WeatherDisplay:10.37,2013-05-25 08:26:00,
2013-05-25 04:31:00,34.7,33.4,30.36,SSW,192,0.0,0.0,95,0.00,CLR,,0.00,0.0,WeatherDisplay:10.37,2013-05-25 08:31:00,
2013-05-25 04:36:00,34.7,33.4,30.36,SSW,192,0.1,1.1,95,0.00,CLR,,0.00,0.0,WeatherDisplay:10.37,2013-05-25 08:36:00,
2013-05-25 04:41:00,34.8,33.5,30.36,SSW,192,0.0,0.0,95,0.00,CLR,,0.00,0.0,WeatherDisplay:10.37,2013-05-25 08:41:00,
2013-05-25 04:46:00,34.8,33.5,30.36,SSW,192,0.1,1.0,95,0.00,CLR,,0.00,0.0,WeatherDisplay:10.37,2013-05-25 08:46:00,
2013-05-25 04:51:00,34.7,33.4,30.36,SSW,192,0.2,1.1,95,0.00,CLR,,0.00,0.0,WeatherDisplay:10.37,2013-05-25 08:51:00,
2013-05-25 04:56:00,34.6,33.3,30.36,SSW,192,0.0,0.0,95,0.00,CLR,,0.00,0.0,WeatherDisplay:10.37,2013-05-25 08:56:00,
2013-05-25 05:01:00,34.5,33.2,30.36,SSW,192,0.0,1.0,95,0.00,CLR,,0.00,0.0,WeatherDisplay:10.37,2013-05-25 09:01:00,
2013-05-25 05:06:00,34.4,33.1,30.36,SSW,192,0.1,1.1,95,0.00,CLR,,0.00,0.0,WeatherDisplay:10.37,2013-05-25 09:06:00,
2013-05-25 05:11:00,34.2,32.9,30.36,SSW,192,0.0,0.0,95,0.00,CLR,,0.00,0.0,WeatherDisplay:10.37,2013-05-25 09:11:00,
2013-05-25 05:16:00,34.2,32.9,30.36,SSW,192,0.0,0.0,95,0.00,CLR,,0.00,0.0,WeatherDisplay:10.37,2013-05-25 09:16:00,
2013-05-25 05:21:00,34.2,32.9,30.37,NE,45,0.0,0.0,95,0.00,CLR,,0.00,0.0,WeatherDisplay:10.37,2013-05-25 09:21:00,
2013-05-25 05:26:00,34.2,32.9,30.36,NE,45,0.4,1.1,95,0.00,CLR,,0.00,0.0,WeatherDisplay:10.37,2013-05-25 09:26:00,
2013-05-25 05:31:00,34.2,32.9,30.36,NE,45,0.6,1.1,95,0.00,CLR,,0.00,0.0,WeatherDisplay:10.37,2013-05-25 09:31:00,
2013-05-25 05:36:00,34.1,32.8,30.36,NE,45,0.3,1.1,95,0.00,CLR,,0.00,0.0,WeatherDisplay:10.37,2013-05-25 09:36:00,
2013-05-25 05:41:00,34.1,32.8,30.36,NE,45,0.6,1.1,95,0.00,CLR,,0.00,0.0,WeatherDisplay:10.37,2013-05-25 09:41:00,
2013-05-25 05:46:00,34.0,32.7,30.37,NE,45,0.0,1.1,95,0.00,CLR,,0.00,0.0,WeatherDisplay:10.37,2013-05-25 09:46:00,
2013-05-25 05:51:00,33.9,32.6,30.37,ENE,57,0.0,0.0,95,0.00,CLR,,0.00,0.0,WeatherDisplay:10.37,2013-05-25 09:51:00,
2013-05-25 05:56:00,33.7,32.4,30.38,ENE,57,0.0,0.0,95,0.00,CLR,,0.00,0.0,WeatherDisplay:10.37,2013-05-25 09:56:00,
2013-05-25 06:01:00,33.7,32.4,30.37,ENE,57,0.0,0.0,95,0.00,CLR,,0.00,0.0,WeatherDisplay:10.37,2013-05-25 10:01:00,
2013-05-25 06:06:00,33.8,32.5,30.37,ENE,57,0.3,1.1,95,0.00,CLR,,0.00,5.0,WeatherDisplay:10.37,2013-05-25 10:06:00,
2013-05-25 06:11:00,33.8,32.5,30.37,ENE,57,0.0,1.1,95,0.00,CLR,,0.00,5.0,WeatherDisplay:10.37,2013-05-25 10:11:00,
2013-05-25 06:16:00,33.8,32.5,30.37,ENE,57,0.0,0.0,95,0.00,CLR,,0.00,7.0,WeatherDisplay:10.37,2013-05-25 10:16:00,
2013-05-25 06:21:00,33.9,32.6,30.37,ENE,65,1.3,2.3,95,0.00,CLR,,0.00,9.0,WeatherDisplay:10.37,2013-05-25 10:21:00,
2013-05-25 06:26:00,34.0,32.7,30.37,ENE,65,0.0,1.1,95,0.00,CLR,,0.00,11.0,WeatherDisplay:10.37,2013-05-25 10:26:00,
2013-05-25 06:31:00,34.1,32.8,30.37,ENE,65,0.4,1.1,95,0.00,CLR,,0.00,11.0,WeatherDisplay:10.37,2013-05-25 10:31:00,
2013-05-25 06:36:00,34.1,32.8,30.37,ENE,65,0.9,1.1,95,0.00,CLR,,0.00,12.0,WeatherDisplay:10.37,2013-05-25 10:36:00,
2013-05-25 06:41:00,34.2,32.9,30.37,East,83,0.6,2.3,95,0.00,CLR,,0.00,18.0,WeatherDisplay:10.37,2013-05-25 10:41:00,
2013-05-25 06:46:00,34.3,33.0,30.37,East,83,0.2,1.1,95,0.00,CLR,,0.00,26.0,WeatherDisplay:10.37,2013-05-25 10:46:00,
2013-05-25 06:51:00,34.4,33.1,30.37,East,83,0.4,1.1,95,0.00,CLR,,0.00,25.0,WeatherDisplay:10.37,2013-05-25 10:51:00,
2013-05-25 06:56:00,34.6,33.3,30.37,East,83,0.0,1.1,95,0.00,CLR,,0.00,32.0,WeatherDisplay:10.37,2013-05-25 10:56:00,
2013-05-25 07:01:00,34.9,33.6,30.37,East,83,0.5,1.1,95,0.00,FEW,,0.00,25.0,WeatherDisplay:10.37,2013-05-25 11:01:00,
2013-05-25 07:06:00,35.2,33.9,30.37,East,83,0.2,1.1,95,0.00,FEW,,0.00,60.0,WeatherDisplay:10.37,2013-05-25 11:06:00,
2013-05-25 07:11:00,35.7,34.4,30.37,East,86,0.0,0.0,95,0.00,FEW,,0.00,35.0,WeatherDisplay:10.37,2013-05-25 11:11:00,
2013-05-25 07:16:00,36.0,34.7,30.37,East,86,0.0,0.0,95,0.00,FEW,,0.00,63.0,WeatherDisplay:10.37,2013-05-25 11:16:00,
2013-05-25 07:21:00,36.5,35.2,30.37,East,86,0.3,2.3,95,0.00,FEW,,0.00,62.0,WeatherDisplay:10.37,2013-05-25 11:21:00,
2013-05-25 07:26:00,37.1,35.8,30.37,East,86,0.0,1.1,95,0.00,FEW,,0.00,214.0,WeatherDisplay:10.37,2013-05-25 11:26:00,
2013-05-25 07:31:00,38.0,36.7,30.37,East,86,0.0,0.0,95,0.00,FEW,,0.00,216.0,WeatherDisplay:10.37,2013-05-25 11:31:00,
2013-05-25 07:36:00,38.7,37.4,30.37,East,86,0.0,0.0,95,0.00,FEW,,0.00,232.0,WeatherDisplay:10.37,2013-05-25 11:36:00,
2013-05-25 07:41:00,39.4,37.8,30.37,East,86,0.0,1.1,94,0.00,FEW,,0.00,248.0,WeatherDisplay:10.37,2013-05-25 11:41:00,
2013-05-25 07:46:00,40.1,38.5,30.37,East,92,0.3,1.0,94,0.00,FEW,,0.00,260.0,WeatherDisplay:10.37,2013-05-25 11:46:00,
2013-05-25 07:51:00,40.5,38.4,30.37,SW,234,2.3,3.5,92,0.00,FEW,,0.00,271.0,WeatherDisplay:10.37,2013-05-25 11:51:00,
2013-05-25 07:56:00,41.1,39.0,30.37,SW,234,0.8,2.3,92,0.00,FEW,,0.00,288.0,WeatherDisplay:10.37,2013-05-25 11:56:00,
2013-05-25 08:01:00,41.8,39.4,30.38,SW,234,0.7,2.3,91,0.00,CLR,,0.00,281.0,WeatherDisplay:10.37,2013-05-25 12:01:00,
2013-05-25 08:06:00,42.5,39.8,30.38,SW,234,0.5,2.3,90,0.00,CLR,,0.00,325.0,WeatherDisplay:10.37,2013-05-25 12:06:00,
2013-05-25 08:11:00,42.9,39.9,30.38,SW,234,2.5,3.5,89,0.00,CLR,,0.00,341.0,WeatherDisplay:10.37,2013-05-25 12:11:00,
2013-05-25 08:16:00,43.3,40.0,30.38,SW,234,2.1,3.5,88,0.00,CLR,,0.00,357.0,WeatherDisplay:10.37,2013-05-25 12:16:00,
2013-05-25 08:21:00,43.9,40.6,30.38,SW,234,1.0,3.5,88,0.00,CLR,,0.00,373.0,WeatherDisplay:10.37,2013-05-25 12:21:00,
2013-05-25 08:26:00,44.7,41.1,30.38,SW,234,1.4,2.3,87,0.00,CLR,,0.00,390.0,WeatherDisplay:10.37,2013-05-25 12:26:00,
2013-05-25 08:31:00,44.9,40.7,30.38,West,259,2.0,2.3,85,0.00,CLR,,0.00,403.0,WeatherDisplay:10.37,2013-05-25 12:31:00,
2013-05-25 08:36:00,45.6,41.0,30.38,West,262,2.5,3.5,84,0.00,CLR,,0.00,420.0,WeatherDisplay:10.37,2013-05-25 12:36:00,
2013-05-25 08:41:00,46.3,40.8,30.39,WNW,290,2.8,4.0,81,0.00,CLR,,0.00,438.0,WeatherDisplay:10.37,2013-05-25 12:41:00,
2013-05-25 08:46:00,47.0,41.8,30.39,NNW,331,2.5,3.5,82,0.00,CLR,,0.00,454.0,WeatherDisplay:10.37,2013-05-25 12:46:00,
2013-05-25 08:51:00,47.9,42.3,30.39,NNW,327,3.2,4.6,81,0.00,CLR,,0.00,468.0,WeatherDisplay:10.37,2013-05-25 12:51:00,
2013-05-25 08:56:00,48.4,41.9,30.39,NNW,335,5.3,7.0,78,0.00,CLR,,0.00,489.0,WeatherDisplay:10.37,2013-05-25 12:56:00,
2013-05-25 09:01:00,48.8,40.5,30.40,NW,304,3.6,5.0,73,0.00,CLR,,0.00,501.0,WeatherDisplay:10.37,2013-05-25 13:01:00,
2013-05-25 09:06:00,49.5,41.9,30.40,WNW,287,2.8,3.5,75,0.00,CLR,,0.00,515.0,WeatherDisplay:10.37,2013-05-25 13:06:00,
2013-05-25 09:11:00,49.8,41.5,30.40,NW,312,5.5,6.9,73,0.00,CLR,,0.00,533.0,WeatherDisplay:10.37,2013-05-25 13:11:00,
2013-05-25 09:16:00,50.4,41.7,30.40,WNW,302,2.5,3.5,72,0.00,CLR,,0.00,552.0,WeatherDisplay:10.37,2013-05-25 13:16:00,
2013-05-25 09:21:00,51.1,38.9,30.40,ENE,64,4.0,6.9,63,0.00,CLR,,0.00,568.0,WeatherDisplay:10.37,2013-05-25 13:21:00,
2013-05-25 09:26:00,51.4,39.2,30.40,NNE,19,4.4,6.9,63,0.00,CLR,,0.00,585.0,WeatherDisplay:10.37,2013-05-25 13:26:00,
2013-05-25 09:31:00,51.3,39.9,30.40,NNE,26,5.0,8.1,65,0.00,CLR,,0.00,601.0,WeatherDisplay:10.37,2013-05-25 13:31:00,
2013-05-25 09:36:00,51.4,39.2,30.40,North,360,7.9,11.5,63,0.00,CLR,,0.00,615.0,WeatherDisplay:10.37,2013-05-25 13:36:00,
2013-05-25 09:41:00,51.7,39.9,30.40,NNE,19,3.8,4.6,64,0.00,CLR,,0.00,629.0,WeatherDisplay:10.37,2013-05-25 13:41:00,
2013-05-25 09:46:00,52.1,39.9,30.40,NW,304,5.0,6.0,63,0.00,CLR,,0.00,645.0,WeatherDisplay:10.37,2013-05-25 13:46:00,
2013-05-25 09:51:00,52.5,41.9,30.40,NNE,20,6.0,8.1,67,0.00,CLR,,0.00,659.0,WeatherDisplay:10.37,2013-05-25 13:51:00,
2013-05-25 09:56:00,52.1,40.3,30.40,NNW,342,8.2,10.4,64,0.00,CLR,,0.00,673.0,WeatherDisplay:10.37,2013-05-25 13:56:00,
2013-05-25 10:01:00,51.9,38.9,30.40,NNW,332,5.7,8.1,61,0.00,SCT,,0.00,689.0,WeatherDisplay:10.37,2013-05-25 14:01:00,
2013-05-25 10:06:00,52.2,40.0,30.40,NW,306,5.5,8.1,63,0.00,SCT,,0.00,703.0,WeatherDisplay:10.37,2013-05-25 14:06:00,
2013-05-25 10:11:00,52.7,40.5,30.41,West,266,4.8,8.1,63,0.00,SCT,,0.00,717.0,WeatherDisplay:10.37,2013-05-25 14:11:00,
2013-05-25 10:16:00,53.0,40.3,30.41,North,355,4.0,5.8,62,0.00,SCT,,0.00,731.0,WeatherDisplay:10.37,2013-05-25 14:16:00,
2013-05-25 10:21:00,53.4,39.9,30.41,North,355,5.6,8.1,60,0.00,SCT,,0.00,745.0,WeatherDisplay:10.37,2013-05-25 14:21:00,
2013-05-25 10:26:00,53.3,41.0,30.41,NNE,15,6.0,8.1,63,0.00,SCT,,0.00,759.0,WeatherDisplay:10.37,2013-05-25 14:26:00,
2013-05-25 10:31:00,53.6,39.2,30.41,NNW,337,7.2,10.4,58,0.00,SCT,,0.00,770.0,WeatherDisplay:10.37,2013-05-25 14:31:00,
2013-05-25 10:36:00,53.5,39.1,30.41,NW,316,5.3,9.2,58,0.00,SCT,,0.00,788.0,WeatherDisplay:10.37,2013-05-25 14:36:00,
2013-05-25 10:41:00,53.7,40.6,30.40,North,360,3.9,7.0,61,0.00,SCT,,0.00,802.0,WeatherDisplay:10.37,2013-05-25 14:41:00,
2013-05-25 10:46:00,54.0,39.1,30.40,North,351,5.1,10.0,57,0.00,SCT,,0.00,812.0,WeatherDisplay:10.37,2013-05-25 14:46:00,
2013-05-25 10:51:00,54.2,39.3,30.41,NW,319,6.1,10.4,57,0.00,SCT,,0.00,823.0,WeatherDisplay:10.37,2013-05-25 14:51:00,
2013-05-25 10:56:00,54.4,41.2,30.40,NNW,329,6.4,12.7,61,0.00,SCT,,0.00,837.0,WeatherDisplay:10.37,2013-05-25 14:56:00,
2013-05-25 11:01:00,53.9,39.5,30.40,WNW,286,2.8,6.0,58,0.00,SCT,,0.00,846.0,WeatherDisplay:10.37,2013-05-25 15:01:00,
2013-05-25 11:06:00,54.1,37.8,30.40,North,355,6.7,11.5,54,0.00,SCT,,0.00,858.0,WeatherDisplay:10.37,2013-05-25 15:06:00,
2013-05-25 11:11:00,54.4,39.0,30.41,NNE,32,5.8,8.1,56,0.00,SCT,,0.00,870.0,WeatherDisplay:10.37,2013-05-25 15:11:00,
2013-05-25 11:16:00,54.7,37.9,30.40,NE,40,4.4,8.0,53,0.00,SCT,,0.00,881.0,WeatherDisplay:10.37,2013-05-25 15:16:00,
2013-05-25 11:21:00,55.0,38.2,30.40,North,355,5.6,11.5,53,0.00,SCT,,0.00,889.0,WeatherDisplay:10.37,2013-05-25 15:21:00,
2013-05-25 11:26:00,55.1,39.2,30.40,NW,319,5.1,8.1,55,0.00,SCT,,0.00,898.0,WeatherDisplay:10.37,2013-05-25 15:26:00,
2013-05-25 11:31:00,54.9,38.6,30.40,NNW,331,6.5,11.0,54,0.00,SCT,,0.00,907.0,WeatherDisplay:10.37,2013-05-25 15:31:00,
2013-05-25 11:36:00,55.3,38.0,30.40,NNE,26,6.3,11.5,52,0.00,SCT,,0.00,916.0,WeatherDisplay:10.37,2013-05-25 15:36:00,
2013-05-25 11:41:00,55.1,37.8,30.40,North,355,6.7,10.4,52,0.00,SCT,,0.00,176.0,WeatherDisplay:10.37,2013-05-25 15:41:00,
2013-05-25 11:46:00,55.3,38.9,30.39,NW,315,3.5,5.8,54,0.00,SCT,,0.00,176.0,WeatherDisplay:10.37,2013-05-25 15:46:00,
2013-05-25 11:51:00,55.6,38.7,30.39,North,360,5.5,10.4,53,0.00,SCT,,0.00,940.0,WeatherDisplay:10.37,2013-05-25 15:51:00,
2013-05-25 11:56:00,55.5,38.6,30.39,North,360,4.9,6.9,53,0.00,SCT,,0.00,935.0,WeatherDisplay:10.37,2013-05-25 15:56:00,
2013-05-25 12:01:00,55.2,37.4,30.40,NW,324,3.5,6.9,51,0.00,SCT,,0.00,882.0,WeatherDisplay:10.37,2013-05-25 16:01:00,
2013-05-25 12:06:00,55.1,38.7,30.39,WNW,290,6.7,11.5,54,0.00,SCT,,0.00,956.0,WeatherDisplay:10.37,2013-05-25 16:06:00,
2013-05-25 12:11:00,55.8,38.9,30.39,NW,307,5.2,6.9,53,0.00,SCT,,0.00,967.0,WeatherDisplay:10.37,2013-05-25 16:11:00,
2013-05-25 12:16:00,55.6,40.1,30.39,NNE,19,6.4,13.0,56,0.00,SCT,,0.00,974.0,WeatherDisplay:10.37,2013-05-25 16:16:00,
2013-05-25 12:21:00,56.2,38.8,30.39,NW,326,6.8,11.5,52,0.00,SCT,,0.00,972.0,WeatherDisplay:10.37,2013-05-25 16:21:00,
2013-05-25 12:26:00,56.2,38.8,30.39,NNW,341,3.1,6.0,52,0.00,SCT,,0.00,341.0,WeatherDisplay:10.37,2013-05-25 16:26:00,
2013-05-25 12:31:00,56.4,40.0,30.39,NW,323,5.9,10.4,54,0.00,SCT,,0.00,907.0,WeatherDisplay:10.37,2013-05-25 16:31:00,
2013-05-25 12:36:00,56.8,39.4,30.39,NW,304,5.3,10.4,52,0.00,SCT,,0.00,397.0,WeatherDisplay:10.37,2013-05-25 16:36:00,
2013-05-25 12:41:00,56.9,38.4,30.39,NNW,339,5.6,7.0,50,0.00,SCT,,0.00,387.0,WeatherDisplay:10.37,2013-05-25 16:41:00,
2013-05-25 12:46:00,57.1,38.1,30.39,NNW,345,5.3,8.1,49,0.00,SCT,,0.00,86.0,WeatherDisplay:10.37,2013-05-25 16:46:00,
2013-05-25 12:51:00,57.4,37.3,30.39,WNW,292,7.4,9.2,47,0.00,SCT,,0.00,114.0,WeatherDisplay:10.37,2013-05-25 16:51:00,
2013-05-25 12:56:00,57.0,38.0,30.39,WNW,293,7.9,11.5,49,0.00,SCT,,0.00,127.0,WeatherDisplay:10.37,2013-05-25 16:56:00,
2013-05-25 13:01:00,57.1,39.1,30.39,NNE,17,4.5,8.0,51,0.00,SCT,,0.00,216.0,WeatherDisplay:10.37,2013-05-25 17:01:00,
2013-05-25 13:06:00,56.9,37.9,30.39,NW,326,6.6,11.5,49,0.00,SCT,,0.00,490.0,WeatherDisplay:10.37,2013-05-25 17:06:00,
2013-05-25 13:11:00,57.3,37.2,30.39,North,360,4.3,13.8,47,0.00,SCT,,0.00,454.0,WeatherDisplay:10.37,2013-05-25 17:11:00,
2013-05-25 13:16:00,57.0,38.5,30.39,NE,44,4.9,10.4,50,0.00,SCT,,0.00,93.0,WeatherDisplay:10.37,2013-05-25 17:16:00,
2013-05-25 13:21:00,57.6,39.1,30.39,North,355,7.9,10.4,50,0.00,SCT,,0.00,104.0,WeatherDisplay:10.37,2013-05-25 17:21:00,
2013-05-25 13:26:00,57.4,37.3,30.38,NNW,331,3.5,5.8,47,0.00,SCT,,0.00,114.0,WeatherDisplay:10.37,2013-05-25 17:26:00,
2013-05-25 13:31:00,57.3,37.2,30.38,NW,313,10.0,13.0,47,0.00,SCT,,0.00,114.0,WeatherDisplay:10.37,2013-05-25 17:31:00,
2013-05-25 13:36:00,57.2,38.7,30.38,NW,319,6.4,10.4,50,0.00,SCT,,0.00,366.0,WeatherDisplay:10.37,2013-05-25 17:36:00,
2013-05-25 13:41:00,57.8,37.1,30.38,NW,315,5.7,11.5,46,0.00,SCT,,0.00,155.0,WeatherDisplay:10.37,2013-05-25 17:41:00,
2013-05-25 13:46:00,58.1,37.4,30.38,WNW,289,9.9,11.5,46,0.00,SCT,,0.00,121.0,WeatherDisplay:10.37,2013-05-25 17:46:00,
2013-05-25 13:51:00,58.0,38.4,30.38,WNW,288,8.0,11.5,48,0.00,SCT,,0.00,661.0,WeatherDisplay:10.37,2013-05-25 17:51:00,
2013-05-25 13:56:00,57.6,38.0,30.38,North,360,4.9,10.4,48,0.00,SCT,,0.00,352.0,WeatherDisplay:10.37,2013-05-25 17:56:00,
2013-05-25 14:01:00,57.3,37.2,30.38,North,5,7.0,11.5,47,0.00,SCT,,0.00,408.0,WeatherDisplay:10.37,2013-05-25 18:01:00,
2013-05-25 14:06:00,58.0,37.9,30.38,WNW,302,7.4,10.4,47,0.00,SCT,,0.00,721.0,WeatherDisplay:10.37,2013-05-25 18:06:00,
2013-05-25 14:11:00,58.4,38.2,30.38,North,360,10.8,18.4,47,0.00,SCT,,0.00,394.0,WeatherDisplay:10.37,2013-05-25 18:11:00,
2013-05-25 14:16:00,57.9,36.1,30.37,NNW,337,4.9,17.3,44,0.00,SCT,,0.00,666.0,WeatherDisplay:10.37,2013-05-25 18:16:00,
2013-05-25 14:21:00,57.8,40.3,30.37,NW,312,5.6,8.1,52,0.00,SCT,,0.00,666.0,WeatherDisplay:10.37,2013-05-25 18:21:00,
2013-05-25 14:26:00,58.1,38.5,30.37,NW,318,6.9,11.0,48,0.00,SCT,,0.00,200.0,WeatherDisplay:10.37,2013-05-25 18:26:00,
2013-05-25 14:31:00,57.4,37.9,30.37,NNW,331,5.4,8.1,48,0.00,SCT,,0.00,891.0,WeatherDisplay:10.37,2013-05-25 18:31:00,
2013-05-25 14:36:00,57.6,38.6,30.36,NW,313,8.2,13.8,49,0.00,SCT,,0.00,1002.0,WeatherDisplay:10.37,2013-05-25 18:36:00,
2013-05-25 14:41:00,58.1,37.4,30.36,North,351,5.3,11.5,46,0.00,SCT,,0.00,954.0,WeatherDisplay:10.37,2013-05-25 18:41:00,
2013-05-25 14:46:00,58.4,37.7,30.36,NNW,337,9.9,13.0,46,0.00,SCT,,0.00,995.0,WeatherDisplay:10.37,2013-05-25 18:46:00,
2013-05-25 14:51:00,58.4,37.7,30.36,NW,316,8.0,11.5,46,0.00,SCT,,0.00,990.0,WeatherDisplay:10.37,2013-05-25 18:51:00,
2013-05-25 14:56:00,58.7,39.0,30.36,North,355,6.7,11.5,48,0.00,SCT,,0.00,974.0,WeatherDisplay:10.37,2013-05-25 18:56:00,
2013-05-25 15:01:00,59.4,39.7,30.36,WNW,283,7.5,11.0,48,0.00,SCT,,0.00,969.0,WeatherDisplay:10.37,2013-05-25 19:01:00,
2013-05-25 15:06:00,59.2,39.0,30.36,ENE,61,7.3,11.5,47,0.00,SCT,,0.00,958.0,WeatherDisplay:10.37,2013-05-25 19:06:00,
2013-05-25 15:11:00,59.2,37.3,30.36,NNW,341,8.2,12.7,44,0.00,SCT,,0.00,951.0,WeatherDisplay:10.37,2013-05-25 19:11:00,
2013-05-25 15:16:00,59.2,39.5,30.36,NNW,341,3.8,12.7,48,0.00,SCT,,0.00,939.0,WeatherDisplay:10.37,2013-05-25 19:16:00,
2013-05-25 15:21:00,59.5,38.7,30.36,North,5,7.4,10.4,46,0.00,SCT,,0.00,921.0,WeatherDisplay:10.37,2013-05-25 19:21:00,
2013-05-25 15:26:00,59.4,39.1,30.35,NNW,346,8.0,10.4,47,0.00,SCT,,0.00,895.0,WeatherDisplay:10.37,2013-05-25 19:26:00,
2013-05-25 15:31:00,59.6,39.3,30.35,NNW,346,8.7,13.8,47,0.00,SCT,,0.00,900.0,WeatherDisplay:10.37,2013-05-25 19:31:00,
2013-05-25 15:36:00,59.5,39.8,30.35,NW,316,5.6,6.9,48,0.00,SCT,,0.00,872.0,WeatherDisplay:10.37,2013-05-25 19:36:00,
2013-05-25 15:41:00,59.7,38.3,30.35,NNW,337,9.7,12.7,45,0.00,SCT,,0.00,877.0,WeatherDisplay:10.37,2013-05-25 19:41:00,
2013-05-25 15:46:00,59.4,38.6,30.35,NNE,12,7.3,10.4,46,0.00,SCT,,0.00,863.0,WeatherDisplay:10.37,2013-05-25 19:46:00,
2013-05-25 15:51:00,59.5,38.1,30.35,NNW,344,7.4,11.5,45,0.00,SCT,,0.00,840.0,WeatherDisplay:10.37,2013-05-25 19:51:00,
2013-05-25 15:56:00,59.4,38.0,30.35,NW,317,8.2,10.4,45,0.00,SCT,,0.00,207.0,WeatherDisplay:10.37,2013-05-25 19:56:00,
2013-05-25 16:01:00,59.4,38.0,30.35,NW,325,10.0,13.8,45,0.00,SCT,,0.00,207.0,WeatherDisplay:10.37,2013-05-25 20:01:00,
2013-05-25 16:06:00,59.3,39.1,30.35,North,5,5.9,11.5,47,0.00,SCT,,0.00,485.0,WeatherDisplay:10.37,2013-05-25 20:06:00,
2013-05-25 16:11:00,59.5,38.1,30.34,NNW,331,3.1,6.9,45,0.00,SCT,,0.00,244.0,WeatherDisplay:10.37,2013-05-25 20:11:00,
2013-05-25 16:17:00,59.6,39.3,30.34,NNW,338,8.9,11.5,47,0.00,SCT,,0.00,308.0,WeatherDisplay:10.37,2013-05-25 20:17:00,
2013-05-25 16:22:00,59.6,39.3,30.34,WNW,290,6.9,10.4,47,0.00,SCT,,0.00,127.0,WeatherDisplay:10.37,2013-05-25 20:22:00,
2013-05-25 16:27:00,59.8,39.0,30.34,NW,323,4.8,11.5,46,0.00,SCT,,0.00,134.0,WeatherDisplay:10.37,2013-05-25 20:27:00,
2013-05-25 16:32:00,60.1,39.8,30.34,WNW,302,9.2,12.0,47,0.00,SCT,,0.00,127.0,WeatherDisplay:10.37,2013-05-25 20:32:00,
2013-05-25 16:37:00,60.0,38.6,30.34,North,350,6.6,9.2,45,0.00,SCT,,0.00,135.0,WeatherDisplay:10.37,2013-05-25 20:37:00,
2013-05-25 16:42:00,59.6,39.3,30.34,NW,311,7.1,12.7,47,0.00,SCT,,0.00,399.0,WeatherDisplay:10.37,2013-05-25 20:42:00,
2013-05-25 16:47:00,59.3,39.1,30.34,NNE,17,4.2,10.4,47,0.00,SCT,,0.00,132.0,WeatherDisplay:10.37,2013-05-25 20:47:00,
2013-05-25 16:52:00,59.6,39.3,30.33,NNE,15,5.2,6.9,47,0.00,SCT,,0.00,160.0,WeatherDisplay:10.37,2013-05-25 20:52:00,
2013-05-25 16:57:00,60.0,39.7,30.33,NNW,327,7.5,11.5,47,0.00,SCT,,0.00,132.0,WeatherDisplay:10.37,2013-05-25 20:57:00,
2013-05-25 17:02:00,59.8,38.4,30.33,NW,312,5.7,8.1,45,0.00,SCT,,0.00,229.0,WeatherDisplay:10.37,2013-05-25 21:02:00,
2013-05-25 17:07:00,59.8,38.4,30.33,NNW,334,6.7,11.5,45,0.00,SCT,,0.00,376.0,WeatherDisplay:10.37,2013-05-25 21:07:00,
2013-05-25 17:12:00,59.5,37.6,30.33,NNW,346,6.3,8.1,44,0.00,SCT,,0.00,128.0,WeatherDisplay:10.37,2013-05-25 21:12:00,
2013-05-25 17:17:00,59.6,38.2,30.33,North,360,6.9,15.0,45,0.00,SCT,,0.00,179.0,WeatherDisplay:10.37,2013-05-25 21:17:00,
2013-05-25 17:22:00,59.6,38.8,30.33,NE,34,4.0,10.4,46,0.00,SCT,,0.00,91.0,WeatherDisplay:10.37,2013-05-25 21:22:00,
2013-05-25 17:27:00,59.5,37.6,30.33,NNW,329,5.9,9.2,44,0.00,SCT,,0.00,79.0,WeatherDisplay:10.37,2013-05-25 21:27:00,
2013-05-25 17:32:00,59.4,37.5,30.33,NNE,24,9.1,13.0,44,0.00,SCT,,0.00,179.0,WeatherDisplay:10.37,2013-05-25 21:32:00,
2013-05-25 17:37:00,59.0,36.5,30.33,NNW,343,7.7,12.7,43,0.00,SCT,,0.00,394.0,WeatherDisplay:10.37,2013-05-25 21:37:00,
2013-05-25 17:42:00,58.9,36.4,30.33,NW,311,6.4,11.5,43,0.00,SCT,,0.00,98.0,WeatherDisplay:10.37,2013-05-25 21:42:00,
2013-05-25 17:47:00,59.2,37.3,30.33,North,355,6.3,11.5,44,0.00,SCT,,0.00,186.0,WeatherDisplay:10.37,2013-05-25 21:47:00,
2013-05-25 17:52:00,59.2,36.7,30.33,NW,326,6.1,11.5,43,0.00,SCT,,0.00,141.0,WeatherDisplay:10.37,2013-05-25 21:52:00,
2013-05-25 17:57:00,59.4,37.5,30.33,NNW,337,6.4,9.2,44,0.00,SCT,,0.00,155.0,WeatherDisplay:10.37,2013-05-25 21:57:00,
2013-05-25 18:02:00,59.3,37.4,30.33,North,355,7.1,10.4,44,0.00,SCT,,0.00,109.0,WeatherDisplay:10.37,2013-05-25 22:02:00,
2013-05-25 18:07:00,59.1,38.3,30.33,NNE,14,7.1,11.5,46,0.00,SCT,,0.00,209.0,WeatherDisplay:10.37,2013-05-25 22:07:00,
2013-05-25 18:12:00,58.9,37.0,30.32,North,5,6.4,6.4,44,0.00,SCT,,0.00,153.0,WeatherDisplay:10.37,2013-05-25 22:12:00,
2013-05-25 18:17:00,58.4,37.7,30.32,NE,45,9.3,10.4,46,0.00,SCT,,0.00,181.0,WeatherDisplay:10.37,2013-05-25 22:17:00,
2013-05-25 18:22:00,57.9,35.5,30.32,North,350,5.5,12.7,43,0.00,SCT,,0.00,367.0,WeatherDisplay:10.37,2013-05-25 22:22:00,
2013-05-25 18:27:00,58.2,38.1,30.31,North,5,4.5,9.2,47,0.00,SCT,,0.00,350.0,WeatherDisplay:10.37,2013-05-25 22:27:00,
2013-05-25 18:32:00,58.2,36.4,30.31,NNE,17,5.6,8.1,44,0.00,SCT,,0.00,353.0,WeatherDisplay:10.37,2013-05-25 22:32:00,
2013-05-25 18:37:00,58.4,37.1,30.31,NNE,26,3.7,4.6,45,0.00,SCT,,0.00,332.0,WeatherDisplay:10.37,2013-05-25 22:37:00,
2013-05-25 18:42:00,58.4,37.7,30.31,NNE,13,5.8,11.5,46,0.00,SCT,,0.00,334.0,WeatherDisplay:10.37,2013-05-25 22:42:00,
2013-05-25 18:47:00,58.1,36.3,30.31,NE,34,7.6,9.2,44,0.00,SCT,,0.00,350.0,WeatherDisplay:10.37,2013-05-25 22:47:00,
2013-05-25 18:52:00,57.9,35.5,30.31,East,81,2.4,5.8,43,0.00,SCT,,0.00,327.0,WeatherDisplay:10.37,2013-05-25 22:52:00,
2013-05-25 18:57:00,57.9,34.9,30.32,NNE,17,5.7,8.1,42,0.00,SCT,,0.00,292.0,WeatherDisplay:10.37,2013-05-25 22:57:00,
2013-05-25 19:02:00,58.0,36.2,30.31,NE,44,3.5,6.9,44,0.00,CLR,,0.00,255.0,WeatherDisplay:10.37,2013-05-25 23:02:00,
2013-05-25 19:07:00,57.5,34.6,30.32,NW,320,2.6,8.1,42,0.00,CLR,,0.00,125.0,WeatherDisplay:10.37,2013-05-25 23:07:00,
2013-05-25 19:12:00,56.8,35.7,30.31,NE,37,3.6,8.1,45,0.00,CLR,,0.00,114.0,WeatherDisplay:10.37,2013-05-25 23:12:00,
2013-05-25 19:17:00,56.5,34.8,30.31,NE,36,3.1,3.5,44,0.00,CLR,,0.00,111.0,WeatherDisplay:10.37,2013-05-25 23:17:00,
2013-05-25 19:22:00,56.4,35.3,30.31,NNW,340,5.0,8.1,45,0.00,CLR,,0.00,214.0,WeatherDisplay:10.37,2013-05-25 23:22:00,
2013-05-25 19:27:00,56.6,36.6,30.32,NNW,340,3.3,4.6,47,0.00,CLR,,0.00,114.0,WeatherDisplay:10.37,2013-05-25 23:27:00,
2013-05-25 19:32:00,56.5,35.4,30.32,North,5,5.6,5.6,45,0.00,CLR,,0.00,62.0,WeatherDisplay:10.37,2013-05-25 23:32:00,
2013-05-25 19:37:00,56.2,35.1,30.32,NNW,332,6.3,6.9,45,0.00,CLR,,0.00,47.0,WeatherDisplay:10.37,2013-05-25 23:37:00,
2013-05-25 19:42:00,55.9,34.8,30.32,NNE,31,4.0,6.9,45,0.00,CLR,,0.00,100.0,WeatherDisplay:10.37,2013-05-25 23:42:00,
2013-05-25 19:47:00,55.8,34.8,30.32,ENE,59,2.9,5.8,45,0.00,CLR,,0.00,76.0,WeatherDisplay:10.37,2013-05-25 23:47:00,
2013-05-25 19:52:00,55.6,34.0,30.32,NNE,23,4.4,8.1,44,0.00,CLR,,0.00,42.0,WeatherDisplay:10.37,2013-05-25 23:52:00,
2013-05-25 19:57:00,55.3,33.7,30.32,ENE,73,3.9,5.8,44,0.00,CLR,,0.00,58.0,WeatherDisplay:10.37,2013-05-25 23:57:00,
2013-05-25 20:02:00,55.1,34.1,30.32,North,350,2.3,3.5,45,0.00,SCT,,0.00,37.0,WeatherDisplay:10.37,2013-05-26 00:02:00,
2013-05-25 20:07:00,54.8,34.9,30.32,North,5,4.2,6.9,47,0.00,SCT,,0.00,40.0,WeatherDisplay:10.37,2013-05-26 00:07:00,
2013-05-25 20:12:00,54.6,34.8,30.32,NE,56,3.1,5.8,47,0.00,SCT,,0.00,23.0,WeatherDisplay:10.37,2013-05-26 00:12:00,
2013-05-25 20:17:00,54.2,34.9,30.32,NNE,13,1.7,5.0,48,0.00,SCT,,0.00,18.0,WeatherDisplay:10.37,2013-05-26 00:17:00,
2013-05-25 20:22:00,53.9,34.6,30.32,NE,38,1.2,2.3,48,0.00,SCT,,0.00,14.0,WeatherDisplay:10.37,2013-05-26 00:22:00,
2013-05-25 20:27:00,53.7,35.5,30.32,North,9,2.2,3.5,50,0.00,SCT,,0.00,12.0,WeatherDisplay:10.37,2013-05-26 00:27:00,
2013-05-25 20:32:00,53.4,35.7,30.32,North,5,2.5,4.0,51,0.00,SCT,,0.00,9.0,WeatherDisplay:10.37,2013-05-26 00:32:00,
2013-05-25 20:37:00,53.1,35.4,30.31,NE,54,2.0,3.5,51,0.00,SCT,,0.00,7.0,WeatherDisplay:10.37,2013-05-26 00:37:00,
2013-05-25 20:42:00,53.0,34.8,30.31,North,9,4.1,6.9,50,0.00,SCT,,0.00,5.0,WeatherDisplay:10.37,2013-05-26 00:42:00,
2013-05-25 20:47:00,52.9,34.2,30.31,NE,35,0.5,1.1,49,0.00,SCT,,0.00,0.0,WeatherDisplay:10.37,2013-05-26 00:47:00,
2013-05-25 20:52:00,52.8,34.2,30.31,North,360,1.8,3.5,49,0.00,SCT,,0.00,0.0,WeatherDisplay:10.37,2013-05-26 00:52:00,
2013-05-25 20:57:00,52.5,33.9,30.31,NNW,348,2.5,3.5,49,0.00,SCT,,0.00,0.0,WeatherDisplay:10.37,2013-05-26 00:57:00,
2013-05-25 21:02:00,52.3,34.7,30.31,NE,46,1.2,3.5,51,0.00,SCT,,0.00,0.0,WeatherDisplay:10.37,2013-05-26 01:02:00,
2013-05-25 21:07:00,52.0,34.4,30.31,NNE,29,1.1,2.3,51,0.00,SCT,,0.00,0.0,WeatherDisplay:10.37,2013-05-26 01:07:00,
2013-05-25 21:12:00,51.9,34.3,30.31,North,355,2.0,3.5,51,0.00,SCT,,0.00,0.0,WeatherDisplay:10.37,2013-05-26 01:12:00,
2013-05-25 21:17:00,51.8,34.7,30.31,NNE,31,2.0,4.6,52,0.00,SCT,,0.00,0.0,WeatherDisplay:10.37,2013-05-26 01:17:00,
2013-05-25 21:22:00,51.7,34.6,30.30,ENE,59,1.6,3.5,52,0.00,SCT,,0.00,0.0,WeatherDisplay:10.37,2013-05-26 01:22:00,
2013-05-25 21:27:00,51.3,35.2,30.30,North,5,0.7,2.3,54,0.00,SCT,,0.00,0.0,WeatherDisplay:10.37,2013-05-26 01:27:00,
2013-05-25 21:32:00,51.1,35.0,30.31,North,5,0.6,1.1,54,0.00,SCT,,0.00,0.0,WeatherDisplay:10.37,2013-05-26 01:32:00,
2013-05-25 21:37:00,50.8,35.7,30.30,NNW,338,2.0,2.3,56,0.00,SCT,,0.00,0.0,WeatherDisplay:10.37,2013-05-26 01:37:00,
2013-05-25 21:42:00,50.7,35.6,30.30,North,5,3.0,3.5,56,0.00,SCT,,0.00,0.0,WeatherDisplay:10.37,2013-05-26 01:42:00,
2013-05-25 21:47:00,50.7,35.6,30.31,North,5,2.2,3.5,56,0.00,SCT,,0.00,0.0,WeatherDisplay:10.37,2013-05-26 01:47:00,
2013-05-25 21:52:00,50.7,36.0,30.31,NNW,348,1.7,3.5,57,0.00,SCT,,0.00,0.0,WeatherDisplay:10.37,2013-05-26 01:52:00,
2013-05-25 21:57:00,50.6,36.4,30.31,NNE,17,1.1,3.5,58,0.00,SCT,,0.00,0.0,WeatherDisplay:10.37,2013-05-26 01:57:00,
2013-05-25 22:02:00,50.4,36.6,30.31,North,355,1.0,2.3,59,0.00,SCT,,0.00,0.0,WeatherDisplay:10.37,2013-05-26 02:02:00,
2013-05-25 22:07:00,50.3,36.5,30.31,North,355,0.6,1.1,59,0.00,SCT,,0.00,0.0,WeatherDisplay:10.37,2013-05-26 02:07:00,
2013-05-25 22:12:00,49.9,37.0,30.31,North,355,0.0,0.0,61,0.00,SCT,,0.00,0.0,WeatherDisplay:10.37,2013-05-26 02:12:00,
2013-05-25 22:17:00,49.5,37.0,30.31,North,355,0.0,0.0,62,0.00,SCT,,0.00,0.0,WeatherDisplay:10.37,2013-05-26 02:17:00,
2013-05-25 22:22:00,49.1,37.4,30.31,North,355,0.0,0.0,64,0.00,SCT,,0.00,0.0,WeatherDisplay:10.37,2013-05-26 02:22:00,
2013-05-25 22:27:00,48.8,37.6,30.31,North,355,0.0,0.0,65,0.00,SCT,,0.00,0.0,WeatherDisplay:10.37,2013-05-26 02:27:00,
2013-05-25 22:32:00,48.3,37.5,30.31,North,355,0.0,0.0,66,0.00,SCT,,0.00,0.0,WeatherDisplay:10.37,2013-05-26 02:32:00,
2013-05-25 22:37:00,47.7,37.7,30.31,North,355,0.0,0.0,68,0.00,SCT,,0.00,0.0,WeatherDisplay:10.37,2013-05-26 02:37:00,
2013-05-25 22:42:00,47.3,37.6,30.31,North,355,0.0,0.0,69,0.00,SCT,,0.00,0.0,WeatherDisplay:10.37,2013-05-26 02:42:00,
2013-05-25 22:47:00,46.9,37.6,30.31,North,355,0.0,0.0,70,0.00,SCT,,0.00,0.0,WeatherDisplay:10.37,2013-05-26 02:47:00,
2013-05-25 22:52:00,46.6,37.7,30.31,North,355,0.0,0.0,71,0.00,SCT,,0.00,0.0,WeatherDisplay:10.37,2013-05-26 02:52:00,
2013-05-25 22:57:00,46.6,38.1,30.31,North,355,0.0,0.0,72,0.00,SCT,,0.00,0.0,WeatherDisplay:10.37,2013-05-26 02:57:00,
2013-05-25 23:02:00,46.4,38.2,30.31,North,355,0.0,0.0,73,0.00,BKN,,0.00,0.0,WeatherDisplay:10.37,2013-05-26 03:02:00,
2013-05-25 23:07:00,46.3,38.1,30.31,North,355,0.0,1.1,73,0.00,BKN,,0.00,0.0,WeatherDisplay:10.37,2013-05-26 03:07:00,
2013-05-25 23:12:00,46.2,38.4,30.31,North,355,0.0,0.0,74,0.00,BKN,,0.00,0.0,WeatherDisplay:10.37,2013-05-26 03:12:00,
2013-05-25 23:17:00,46.1,38.3,30.31,North,355,0.1,1.1,74,0.00,BKN,,0.00,0.0,WeatherDisplay:10.37,2013-05-26 03:17:00,
2013-05-25 23:22:00,45.9,38.4,30.31,North,355,0.0,0.0,75,0.00,BKN,,0.00,0.0,WeatherDisplay:10.37,2013-05-26 03:22:00,
2013-05-25 23:27:00,45.8,38.0,30.31,North,350,0.0,0.0,74,0.00,BKN,,0.00,0.0,WeatherDisplay:10.37,2013-05-26 03:27:00,
2013-05-25 23:32:00,45.9,37.7,30.31,North,350,0.4,1.1,73,0.00,BKN,,0.00,0.0,WeatherDisplay:10.37,2013-05-26 03:32:00,
2013-05-25 23:37:00,46.0,37.5,30.31,North,350,0.0,0.0,72,0.00,BKN,,0.00,0.0,WeatherDisplay:10.37,2013-05-26 03:37:00,
2013-05-25 23:42:00,46.0,36.8,30.31,North,350,0.4,2.3,70,0.00,BKN,,0.00,0.0,WeatherDisplay:10.37,2013-05-26 03:42:00,
2013-05-25 23:47:00,46.3,35.9,30.31,North,350,0.3,2.0,67,0.00,BKN,,0.00,0.0,WeatherDisplay:10.37,2013-05-26 03:47:00,
2013-05-25 23:52:00,46.3,35.6,30.31,North,350,0.2,1.1,66,0.00,BKN,,0.00,0.0,WeatherDisplay:10.37,2013-05-26 03:52:00,
2013-05-25 23:57:00,46.2,34.7,30.31,NNW,344,0.3,1.1,64,0.00,BKN,,0.00,0.0,WeatherDisplay:10.37,2013-05-26 03:57:00,